Regional Weather Roundup
Issued by NWS

Home | Current Version | Previous Version | Graphics & Text | Print | Product List | Glossary On
Versions: 1 2 3 4 5 6 7 8 9 10 11 12 13 14 15 16 17 18 19 20 21 22 23 24 25 26 27 28 29 30 31 32 33 34 35 36 37 38 39 40
000
ASUS43 KDMX 271707
RWRIA

WEATHER ROUNDUP FOR IOWA
NATIONAL WEATHER SERVICE DES MOINES IA
1100 AM CST SAT DEC 27 2014

NOTE: "FAIR" INDICATES FEW OR NO CLOUDS BELOW 12,000 FEET WITH NO
SIGNIFICANT WEATHER AND/OR OBSTRUCTIONS TO VISIBILITY.

* - THESE STATIONS ARE NOT NWS STATIONS...THUS NOT UNDER NWS
QUALITY CONTROL.  THEY ALSO DO NOT REPORT WEATHER SUCH
AS PRECIPITATION OR FOG.

IAZ001>003-012>014-020>022-031>034-043>046-271800-
   NORTHWEST IOWA

CITY           SKY/WX    TMP DP  RH WIND       PRES   REMARKS
CARROLL *      PTSUNNY   23  18  80 NW17      30.20F WCI   9
CHEROKEE *     CLOUDY    18  16  93 NW8       30.22R WCI   7
DENISON *      CLOUDY    21  18  86 NW9       30.21S WCI  11
LE MARS *      CLOUDY    18  14  86 NW8       30.25R WCI   7
ORANGE CITY *  LGT SNOW  18  16  93 W12       30.20R WCI   5
SHELDON *      SUNNY     18  12  79 NW13      30.18S WCI   4
SIOUX CITY     MOSUNNY   20  13  74 NW13      30.25R WCI   7
SPENCER        SUNNY     19  11  70 W14       30.19R WCI   6
STORM LAKE *   MOSUNNY   18  14  86 NW13G20   30.19R WCI   4
$$

IAZ055>058-069>071-079>083-090>094-271800-
   SOUTHWEST IOWA

CITY           SKY/WX    TMP DP  RH WIND       PRES   REMARKS
ATLANTIC *     CLOUDY    23  21  93 NW10      30.23R WCI  12
AUDUBON *      MOSUNNY   25  18  74 NW8       30.21S WCI  16
CLARINDA *     CLOUDY    27  23  86 NW8       30.27S WCI  18
COUNCIL BLFS * SUNNY     23  21  93 NW12      30.23S WCI  12
CRESTON *      CLOUDY    25  23  93 NW15      30.20F WCI  12
HARLAN  *      CLOUDY    23  23 100 NW12      30.27R WCI  12
LAMONI         PTSUNNY   29  22  75 NW12      30.19S WCI  19
RED OAK *      CLOUDY    25  23  93 W10       30.25S WCI  15
SHENANDOAH *   CLOUDY    27  21  80 W10       30.27S WCI  17
$$

IAZ047>049-059>061-072>074-084-271800-
   CENTRAL IOWA

CITY           SKY/WX    TMP DP  RH WIND       PRES   REMARKS
AMES           CLOUDY    26  21  81 NW16      30.17R WCI  14
ANKENY *       CLOUDY    27  23  86 W14       30.19S WCI  15
CHARITON *     CLOUDY    30  25  80 W13       30.19R WCI  20
DES MOINES     CLOUDY    28  22  78 NW13      30.21R WCI  17
GRINNELL*      CLOUDY    28  25  86 W17       30.15S WCI  16
KNOXVILLE *    CLOUDY    30  25  80 NW15G23   30.16F WCI  19
MARSHALLTOWN   CLOUDY    27  24  89 NW15      30.13R WCI  15
PELLA *        CLOUDY    30  26  84 W14G21    30.18F WCI  19
PERRY *        PTSUNNY   27  23  86 W12G18    30.21R WCI  16
$$

IAZ004>006-015-016-023>025-035-036-271800-
   NORTH CENTRAL IOWA

CITY           SKY/WX    TMP DP  RH WIND       PRES   REMARKS
ALGONA *       PTSUNNY   19  16  86 NW16      30.17R WCI   5
CLARION *      MOSUNNY   21  19  93 NW14G21   30.15R WCI   8
ESTHERVILLE    SUNNY     15   9  76 NW16      30.16R WCI  -1
FORT DODGE *   MOSUNNY   21  14  73 NW10      30.19R WCI  10
MASON CITY     CLOUDY    21  17  84 NW20      30.13R WCI   6
FOREST CITY *  CLOUDY    21  16  79 NW15      30.12R WCI   8
IOWA FALLS *   CLOUDY    25  21  86 NW16      30.14F WCI  12
$$

IAZ007>011-017>019-026>030-037>042-050>054-066-271800-
   NORTHEAST IOWA

CITY           SKY/WX    TMP DP  RH WIND       PRES   REMARKS
CEDAR RAPIDS   CLOUDY    30  28  92 W22       30.09R WCI  17
CHARLES CITY * CLOUDY    25  23  93 NW15      30.10R WCI  12
CLINTON *      CLOUDY    34  28  80 W20       30.07F WCI  22
DECORAH *      CLOUDY    27  25  93 NW10G17   30.03R WCI  17
DUBUQUE        CLOUDY    31  28  89 W20G29    30.03R WCI  19
MONTICELLO *   CLOUDY    32  30  93 W15G22    30.07R WCI  22
OELWEIN *      CLOUDY    28  25  86 NW16      30.08R WCI  17
WATERLOO       CLOUDY    28  24  85 NW14      30.11R WCI  17
$$

IAZ064-065-067-068-078-271800-
   EAST CENTRAL IOWA

CITY           SKY/WX    TMP DP  RH WIND       PRES   REMARKS
DAVENPORT      CLOUDY    34  28  79 W22G28    30.09R WCI  22
IOWA CITY      CLOUDY    32  27  81 W17G26    30.12R WCI  21
MT. PLEASANT * CLOUDY    34  28  80 W16       30.17R WCI  23
MUSCATINE *    CLOUDY    36  28  75 W20       30.14R WCI  25
QUAD CITIES    CLOUDY    36  28  73 W17       30.07R WCI  26
$$

IAZ062-063-075>077-085>089-095>099-271800-
   SOUTHEAST IOWA

CITY           SKY/WX    TMP DP  RH WIND       PRES   REMARKS
BURLINGTON     CLOUDY    37  29  72 W14       30.13R WCI  28
FAIRFIELD *    CLOUDY    32  27  80 W17G24    30.15F WCI  21
FORT MADISON * CLOUDY    37  30  75 W14       30.17R WCI  29
KEOKUK *       CLOUDY    37  30  75 W14G25    30.17R WCI  29
OSKALOOSA *    CLOUDY    30  25  80 W15       30.16F WCI  19
CENTERVILLE *  CLOUDY    32  27  80 W17       30.20R WCI  21
OTTUMWA        CLOUDY    30  25  81 W16       30.16S WCI  19
WASHINGTON *   CLOUDY    32  32 100 W15       30.14R WCI  22
$$

ABBREVIATIONS USED IN REMARKS
   TC - TEMPERATURES IN CELSIUS
  WCI - WIND CHILL INDEX
   HX - HEAT INDEX
  VSB - VISIBILITY
$$



USA.gov is the U.S. government's official web portal to all federal, state and local government web resources and services.